FW8937 Weather Reports


Display with metric or nautical units.
time (UTC)temp
F
wind
direction
speed
MPH
gust
MPH
rain 1hr
in
rain 24hr
in
rain mn
in
humidity
%
barometer
mb
20210917163830 50 136 3.0 7.0 0.00 0.00 0.00 67 1029.9
20210917163329 49 102 3.0 8.0 0.00 0.00 0.00 69 1029.8
20210917162828 50 101 4.0 8.0 0.00 0.00 0.00 67 1029.8
20210917162329 49 112 4.0 8.0 0.00 0.00 0.00 67 1029.8
20210917161829 48 131 4.0 9.0 0.00 0.00 0.00 69 1029.9
20210917161330 48 92 4.0 9.0 0.00 0.00 0.00 71 1029.9
20210917160829 48 97 3.0 9.0 0.00 0.00 0.00 72 1029.9
20210917160327 47 131 4.0 9.0 0.00 0.00 0.00 73 1029.8
20210917155828 46 84 4.0 8.0 0.00 0.00 0.00 75 1029.8
20210917155325 45 89 3.0 7.0 0.00 0.00 0.00 79 1029.5
20210917154826 45 111 2.0 7.0 0.00 0.00 0.00 77 1029.6
20210917154329 44 99 2.0 4.0 0.00 0.00 0.00 79 1029.6
20210917153824 42 137 2.0 4.0 0.00 0.00 0.00 86 1029.6
20210917153323 40 127 1.0 4.0 0.00 0.00 0.00 87 1029.6
20210917152816 40 128 2.0 5.0 0.00 0.00 0.00 87 1029.6
20210917152311 39 129 2.0 5.0 0.00 0.00 0.00 87 1029.6
20210917151805 39 98 1.0 4.0 0.00 0.00 0.00 88 1029.5
20210917151258 39 95 2.0 4.0 0.00 0.00 0.00 89 1029.6
20210917150752 39 148 2.0 5.0 0.00 0.00 0.00 87 1029.6
20210917150246 39 157 2.0 5.0 0.00 0.00 0.00 89 1029.6
20210917145741 38 131 1.0 4.0 0.00 0.00 0.00 91 1029.6
20210917145235 38 313 1.0 3.0 0.00 0.00 0.00 91 1029.6
20210917144729 37 313 1.0 4.0 0.00 0.00 0.00 91 1029.6
20210917144222 37 313 1.0 4.0 0.00 0.00 0.00 91 1029.5
20210917143717 37 225 1.0 3.0 0.00 0.00 0.00 92 1029.6
20210917143211 37 225 0.0 3.0 0.00 0.00 0.00 94 1029.5
20210917142706 36 157 1.0 3.0 0.00 0.00 0.00 92 1029.6
20210917142159 37 157 2.0 3.0 0.00 0.00 0.00 93 1029.5
20210917141653 37 140 1.0 3.0 0.00 0.00 0.00 92 1029.5
20210917141151 37 140 1.0 3.0 0.00 0.00 0.00 93 1029.6
20210917140641 36 92 1.0 3.0 0.00 0.00 0.00 93 1029.6
20210917140135 36 94 1.0 3.0 0.00 0.00 0.00 93 1029.5
20210917135630 36 95 1.0 3.0 0.00 0.00 0.00 93 1029.4
20210917135123 36 95 2.0 4.0 0.00 0.00 0.00 93 1029.5
20210917134617 36 82 2.0 4.0 0.00 0.00 0.00 93 1029.3
20210917134111 36 71 2.0 4.0 0.00 0.00 0.00 93 1029.3
20210917133608 36 71 1.0 4.0 0.00 0.00 0.00 93 1029.3
20210917133108 36 71 1.0 4.0 0.00 0.00 0.00 92 1029.3
20210917132607 36 71 0.0 2.0 0.00 0.00 0.00 93 1029.3
20210917132108 36 71 0.0 2.0 0.00 0.00 0.00 93 1029.3
20210917131607 36 71 1.0 2.0 0.00 0.00 0.00 93 1029.3
20210917131104 35 71 1.0 4.0 0.00 0.00 0.00 92 1029.3
20210917130605 35 71 1.0 4.0 0.00 0.00 0.00 92 1029.3
20210917130106 35 71 0.0 2.0 0.00 0.00 0.00 92 1029.1
20210917125605 36 71 0.0 2.0 0.00 0.00 0.00 91 1029.0
20210917125105 36 71 1.0 3.0 0.00 0.00 0.00 91 1028.9
20210917124605 36 71 1.0 3.0 0.00 0.00 0.00 91 1028.9
20210917124105 36 71 0.0 2.0 0.00 0.00 0.00 92 1028.9
20210917123601 36 71 0.0 2.0 0.00 0.00 0.00 92 1028.7
20210917123101 36 71 1.0 2.0 0.00 0.00 0.00 92 1028.7
20210917122558 36 71 1.0 2.0 0.00 0.00 0.00 92 1028.7
20210917122056 36 71 1.0 2.0 0.00 0.00 0.00 91 1028.7
20210917121556 36 71 0.0 2.0 0.00 0.00 0.00 91 1028.7
20210917121057 36 71 0.0 2.0 0.00 0.00 0.00 91 1028.7
20210917120555 36 71 1.0 3.0 0.00 0.00 0.00 91 1028.6
20210917120051 36 71 1.0 3.0 0.00 0.00 0.00 90 1028.7
20210917115552 37 71 0.0 2.0 0.00 0.00 0.00 89 1028.6
20210917115052 37 71 1.0 4.0 0.00 0.00 0.00 89 1028.5
20210917114552 37 71 1.0 4.0 0.00 0.00 0.00 87 1028.5
20210917114053 38 53 1.0 2.0 0.00 0.00 0.00 87 1028.6
20210917113551 38 53 1.0 3.0 0.00 0.00 0.00 86 1028.5
20210917113051 39 53 2.0 5.0 0.00 0.00 0.00 85 1028.3
20210917112552 39 55 1.0 5.0 0.00 0.00 0.00 87 1028.5
20210917112049 39 78 1.0 3.0 0.00 0.00 0.00 86 1028.3
20210917111547 40 78 1.0 3.0 0.00 0.00 0.00 85 1028.3
20210917111049 40 79 1.0 3.0 0.00 0.00 0.00 86 1028.2
20210917110548 40 145 1.0 3.0 0.00 0.00 0.00 85 1028.1
20210917110049 40 145 1.0 3.0 0.00 0.00 0.00 85 1028.1
20210917105548 40 145 1.0 3.0 0.00 0.00 0.00 86 1028.1
20210917105048 40 145 2.0 3.0 0.00 0.00 0.00 85 1028.0
20210917104546 40 119 1.0 3.0 0.00 0.00 0.00 86 1028.0
20210917104045 40 61 1.0 3.0 0.00 0.00 0.00 86 1028.0
20210917103541 40 60 2.0 3.0 0.00 0.00 0.00 85 1028.0
20210917103045 40 60 1.0 3.0 0.00 0.00 0.00 84 1028.0
20210917102536 40 61 0.0 2.0 0.00 0.00 0.00 84 1028.2
20210917102029 40 61 1.0 1.0 0.00 0.00 0.00 84 1028.0
20210917101524 40 61 1.0 2.0 0.00 0.00 0.00 84 1028.0
20210917101017 41 61 1.0 3.0 0.00 0.00 0.00 84 1028.0
20210917100511 41 61 1.0 3.0 0.00 0.00 0.00 82 1027.8
20210917100006 41 61 1.0 4.0 0.00 0.00 0.00 83 1027.8
20210917095459 41 61 2.0 4.0 0.00 0.00 0.00 82 1027.8
20210917094954 41 61 1.0 4.0 0.00 0.00 0.00 82 1027.7
20210917094447 42 48 1.0 4.0 0.00 0.00 0.00 82 1027.7
20210917093941 42 48 1.0 4.0 0.00 0.00 0.00 81 1027.8
20210917093436 42 48 2.0 4.0 0.00 0.00 0.00 80 1027.8
20210917092930 42 48 2.0 4.0 0.00 0.00 0.00 80 1027.6
20210917092423 43 51 2.0 4.0 0.00 0.00 0.00 78 1027.7
20210917091918 43 67 2.0 4.0 0.00 0.00 0.00 77 1027.4
20210917091412 43 67 1.0 4.0 0.00 0.00 0.00 77 1027.4
20210917090905 44 24 1.0 3.0 0.00 0.00 0.00 76 1027.4
20210917090401 44 24 2.0 3.0 0.00 0.00 0.00 75 1027.3
20210917085854 44 24 1.0 3.0 0.00 0.00 0.00 74 1027.4
20210917085347 44 24 1.0 3.0 0.00 0.00 0.00 74 1027.3
20210917084842 44 24 1.0 2.0 0.00 0.00 0.00 75 1027.3
20210917084335 44 24 1.0 2.0 0.00 0.00 0.00 75 1027.2
20210917083833 45 24 1.0 2.0 0.00 0.00 0.00 73 1026.9
20210917083324 45 24 0.0 2.0 0.00 0.00 0.00 73 1027.0
20210917082817 45 24 0.0 8.0 0.00 0.00 0.00 73 1027.0
20210917082312 46 24 1.0 8.0 0.00 0.00 0.00 73 1027.0
20210917081806 46 24 3.0 10.0 0.00 0.00 0.00 73 1026.9
20210917081300 46 64 3.0 10.0 0.00 0.00 0.00 71 1026.9
20210917080755 46 46 3.0 12.0 0.00 0.00 0.00 72 1026.9
20210917080248 46 34 4.0 14.0 0.00 0.00 0.00 68 1026.9
20210917075742 47 98 5.0 14.0 0.00 0.00 0.00 67 1026.8
20210917075236 47 99 5.0 13.0 0.00 0.00 0.00 66 1026.8
20210917074730 48 82 7.0 16.0 0.00 0.00 0.00 64 1026.7
20210917074224 48 68 7.0 16.0 0.00 0.00 0.00 61 1026.7
20210917073720 49 135 8.0 16.0 0.00 0.00 0.00 59 1026.4
20210917073220 50 65 8.0 15.0 0.00 0.00 0.00 57 1026.4
20210917072719 51 57 7.0 15.0 0.00 0.00 0.00 54 1026.5
20210917072219 51 67 6.0 18.0 0.00 0.00 0.00 50 1026.3
20210917071718 52 82 5.0 18.0 0.00 0.00 0.00 48 1026.0
20210917071219 52 65 4.0 10.0 0.00 0.00 0.00 46 1025.7
20210917070718 53 109 4.0 12.0 0.00 0.00 0.00 43 1025.5
20210917070219 53 78 3.0 12.0 0.00 0.00 0.00 41 1025.4
20210917065719 53 126 2.0 8.0 0.00 0.00 0.00 37 1025.1
20210917065219 54 41 4.0 11.0 0.00 0.00 0.00 34 1025.1
20210917064714 55 76 6.0 13.0 0.00 0.00 0.00 32 1025.1
20210917064214 57 108 5.0 14.0 0.00 0.00 0.00 28 1025.1
20210917063716 59 44 6.0 14.0 0.00 0.00 0.00 24 1025.0
20210917063216 59 32 7.0 14.0 0.00 0.00 0.00 21 1024.6
20210917062715 59 296 8.0 14.0 0.00 0.00 0.00 21 1024.3
20210917062216 60 295 9.0 15.0 0.00 0.00 0.00 20 1024.0
20210917061715 60 278 10.0 15.0 0.00 0.00 0.00 20 1024.0
20210917061216 60 255 11.0 15.0 0.00 0.00 0.00 20 1023.7
20210917060709 60 284 10.0 15.0 0.00 0.00 0.00 21 1023.7
20210917060204 60 259 10.0 15.0 0.00 0.00 0.00 21 1023.4
20210917055700 60 264 11.0 19.0 0.00 0.00 0.00 21 1023.3
20210917055154 60 248 11.0 19.0 0.00 0.00 0.00 21 1023.3
20210917054647 60 240 11.0 17.0 0.00 0.00 0.00 22 1023.1
20210917054141 60 257 11.0 19.0 0.00 0.00 0.00 22 1023.1
20210917053636 60 277 11.0 19.0 0.00 0.00 0.00 22 1023.1
20210917053132 60 251 11.0 17.0 0.00 0.00 0.00 23 1023.0
20210917052633 60 241 11.0 17.0 0.00 0.00 0.00 23 1022.9
20210917052132 60 235 11.0 17.0 0.00 0.00 0.00 22 1022.7
20210917051633 60 269 11.0 18.0 0.00 0.00 0.00 22 1022.7
20210917051133 61 288 12.0 19.0 0.00 0.00 0.00 22 1022.7
20210917050632 61 253 13.0 22.0 0.00 0.00 0.00 23 1022.7
20210917050132 61 263 14.0 22.0 0.00 0.00 0.00 23 1022.7
20210917045633 60 217 13.0 20.0 0.00 0.00 0.00 24 1022.7
20210917045135 60 229 12.0 20.0 0.00 0.00 0.00 24 1022.6
20210917044633 60 248 12.0 21.0 0.00 0.00 0.00 24 1022.6
20210917044132 60 257 12.0 21.0 0.00 0.00 0.00 24 1022.6
20210917043632 60 239 12.0 22.0 0.00 0.00 0.00 25 1022.6
20210917043132 60 249 12.0 22.0 0.00 0.00 0.00 25 1022.6
20210917042632 60 240 11.0 19.0 0.00 0.00 0.00 25 1022.6
20210917042133 60 296 11.0 18.0 0.00 0.00 0.00 25 1022.5
20210917041633 60 254 11.0 20.0 0.00 0.00 0.00 25 1022.5
20210917041132 60 259 11.0 20.0 0.00 0.00 0.00 26 1022.6
20210917040634 60 263 11.0 19.0 0.00 0.00 0.00 26 1022.6
20210917040133 60 275 10.0 18.0 0.00 0.00 0.00 26 1022.6
20210917035633 60 285 10.0 17.0 0.00 0.00 0.00 26 1022.6
20210917035133 60 252 10.0 17.0 0.00 0.00 0.00 26 1022.6
20210917034632 61 269 10.0 16.0 0.00 0.00 0.00 26 1022.5
20210917034132 61 238 11.0 18.0 0.00 0.00 0.00 26 1022.4
20210917033635 61 278 11.0 19.0 0.00 0.00 0.00 26 1022.2
20210917033134 61 271 12.0 19.0 0.00 0.00 0.00 26 1022.2
20210917032631 61 268 12.0 19.0 0.00 0.00 0.00 26 1022.1
20210917032130 62 250 11.0 17.0 0.00 0.00 0.00 25 1022.0
20210917031631 62 264 11.0 17.0 0.00 0.00 0.00 25 1022.0
20210917031131 62 275 12.0 20.0 0.00 0.00 0.00 25 1022.0
20210917030631 62 274 13.0 20.0 0.00 0.00 0.00 24 1022.0
20210917030130 62 262 13.0 20.0 0.00 0.00 0.00 25 1022.0
20210917025630 62 263 12.0 21.0 0.00 0.00 0.00 25 1021.8
20210917025131 62 285 12.0 21.0 0.00 0.00 0.00 25 1021.8
20210917024632 62 296 11.0 19.0 0.00 0.00 0.00 25 1022.0
20210917024124 62 265 11.0 18.0 0.00 0.00 0.00 24 1022.0
20210917023622 62 308 11.0 20.0 0.00 0.00 0.00 24 1021.8
20210917023113 62 286 10.0 20.0 0.00 0.00 0.00 25 1021.7
20210917022607 62 267 10.0 18.0 0.00 0.00 0.00 25 1021.7
20210917022102 62 310 9.0 16.0 0.00 0.00 0.00 24 1021.4
20210917021555 62 260 9.0 15.0 0.00 0.00 0.00 24 1021.4
20210917021050 62 311 9.0 15.0 0.00 0.00 0.00 24 1021.4
20210917020543 62 259 9.0 15.0 0.00 0.00 0.00 24 1021.3
20210917020037 63 248 8.0 14.0 0.00 0.00 0.00 24 1021.3
20210917015531 63 263 7.0 14.0 0.00 0.00 0.00 23 1021.2
20210917015024 63 257 7.0 11.0 0.00 0.00 0.00 23 1020.9
20210917014519 63 273 6.0 13.0 0.00 0.00 0.00 23 1020.9
20210917014012 63 271 5.0 13.0 0.00 0.00 0.00 23 1020.8
20210917013507 63 248 4.0 9.0 0.00 0.00 0.00 23 1020.8
20210917013000 63 234 4.0 10.0 0.00 0.00 0.00 23 1020.7
20210917012455 64 279 5.0 11.0 0.00 0.00 0.00 23 1020.7
20210917011949 64 263 6.0 11.0 0.00 0.00 0.00 22 1020.7
20210917011443 64 268 5.0 10.0 0.00 0.00 0.00 22 1020.5
20210917010937 64 274 4.0 9.0 0.00 0.00 0.00 22 1020.3
20210917010431 64 277 4.0 10.0 0.00 0.00 0.00 22 1020.4
20210917005925 65 242 4.0 10.0 0.00 0.00 0.00 22 1020.4
20210917005419 65 279 5.0 11.0 0.00 0.00 0.00 22 1020.4
20210917004914 65 284 6.0 11.0 0.00 0.00 0.00 21 1020.4
20210917004407 66 255 6.0 11.0 0.00 0.00 0.00 21 1020.5
20210917003900 66 326 7.0 13.0 0.00 0.00 0.00 20 1020.5
20210917003355 67 308 7.0 15.0 0.00 0.00 0.00 20 1020.5
20210917002850 67 248 7.0 15.0 0.00 0.00 0.00 20 1020.5
20210917002343 68 303 8.0 15.0 0.00 0.00 0.00 19 1020.5
20210917001837 68 307 8.0 17.0 0.00 0.00 0.00 18 1020.4
20210917001330 69 283 6.0 16.0 0.00 0.00 0.00 19 1020.4
20210917000827 70 321 5.0 12.0 0.00 0.00 0.00 18 1020.3
20210917000319 70 263 6.0 14.0 0.00 0.00 0.00 18 1020.1
20210916235814 70 319 9.0 18.0 0.00 0.00 0.00 19 1020.1
20210916235307 70 279 10.0 20.0 0.00 0.00 0.00 18 1020.1
20210916234802 70 251 7.0 20.0 0.00 0.00 0.00 19 1020.0
20210916234255 70 23 5.0 15.0 0.00 0.00 0.00 18 1019.8
20210916233749 71 302 5.0 14.0 0.00 0.00 0.00 17 1019.8
20210916233243 71 290 5.0 14.0 0.00 0.00 0.00 17 1019.9
20210916232737 72 303 4.0 12.0 0.00 0.00 0.00 17 1019.8
20210916232231 72 316 5.0 12.0 0.00 0.00 0.00 17 1019.9
20210916231725 73 263 5.0 11.0 0.00 0.00 0.00 17 1019.6
20210916231219 73 333 4.0 9.0 0.00 0.00 0.00 19 1019.6
20210916230719 73 90 3.0 7.0 0.00 0.00 0.00 19 1019.6
20210916230219 72 72 2.0 6.0 0.00 0.00 0.00 17 1019.8
20210916225719 72 92 3.0 8.0 0.00 0.00 0.00 18 1019.8
20210916225222 73 343 3.0 10.0 0.00 0.00 0.00 17 1019.8
20210916224719 74 348 4.0 10.0 0.00 0.00 0.00 19 1019.6
20210916224219 74 68 5.0 10.0 0.00 0.00 0.00 18 1019.8
20210916223717 74 46 5.0 14.0 0.00 0.00 0.00 16 1019.6
20210916223218 75 78 5.0 14.0 0.00 0.00 0.00 17 1019.5
20210916222719 74 82 4.0 11.0 0.00 0.00 0.00 21 1019.4
20210916222217 71 57 3.0 7.0 0.00 0.00 0.00 17 1019.6
20210916221719 71 88 3.0 8.0 0.00 0.00 0.00 18 1019.5
20210916221216 71 70 3.0 8.0 0.00 0.00 0.00 18 1019.5
20210916220715 71 80 3.0 8.0 0.00 0.00 0.00 18 1019.4
20210916220216 71 58 2.0 7.0 0.00 0.00 0.00 19 1019.4
20210916215716 70 47 2.0 7.0 0.00 0.00 0.00 18 1019.6
20210916215216 70 355 2.0 5.0 0.00 0.00 0.00 18 1019.6
20210916214716 70 51 3.0 9.0 0.00 0.00 0.00 17 1019.6
20210916214215 70 74 4.0 9.0 0.00 0.00 0.00 18 1019.6
20210916213716 71 36 4.0 9.0 0.00 0.00 0.00 17 1019.5
20210916213215 72 82 6.0 16.0 0.00 0.00 0.00 17 1019.6
20210916212715 74 93 7.0 16.0 0.00 0.00 0.00 17 1019.5
20210916212216 73 36 5.0 12.0 0.00 0.00 0.00 17 1019.5
20210916211716 73 9 4.0 11.0 0.00 0.00 0.00 18 1019.6
20210916211217 73 355 6.0 15.0 0.00 0.00 0.00 17 1019.6
20210916210717 74 294 9.0 17.0 0.00 0.00 0.00 19 1019.6
20210916210217 76 315 9.0 17.0 0.00 0.00 0.00 17 1019.6
20210916205716 76 281 9.0 17.0 0.00 0.00 0.00 16 1019.8
20210916205215 76 289 9.0 18.0 0.00 0.00 0.00 16 1019.8
20210916204715 76 303 8.0 18.0 0.00 0.00 0.00 15 1019.8
20210916204216 77 276 6.0 18.0 0.00 0.00 0.00 16 1019.6
20210916203716 74 12 4.0 12.0 0.00 0.00 0.00 19 1019.9
20210916203216 72 275 3.0 10.0 0.00 0.00 0.00 18 1019.9
20210916202714 72 232 2.0 6.0 0.00 0.00 0.00 16 1019.9
20210916202208 71 66 2.0 5.0 0.00 0.00 0.00 17 1019.9
20210916201702 71 27 1.0 5.0 0.00 0.00 0.00 18 1020.0
20210916201156 72 156 3.0 9.0 0.00 0.00 0.00 16 1020.0
20210916200650 73 173 4.0 9.0 0.00 0.00 0.00 16 1020.0
20210916200143 71 132 5.0 10.0 0.00 0.00 0.00 18 1020.0
20210916195636 71 118 5.0 10.0 0.00 0.00 0.00 17 1020.0
20210916195130 71 87 5.0 11.0 0.00 0.00 0.00 18 1020.3
20210916194624 71 0 5.0 11.0 0.00 0.00 0.00 18 1020.3
20210916194119 72 148 3.0 8.0 0.00 0.00 0.00 16 1020.3
20210916193612 74 143 3.0 7.0 0.00 0.00 0.00 17 1020.3
20210916193105 74 183 2.0 7.0 0.00 0.00 0.00 19 1020.3
20210916192559 72 61 3.0 9.0 0.00 0.00 0.00 16 1020.1
20210916192054 75 44 6.0 15.0 0.00 0.00 0.00 14 1020.1
20210916191548 80 138 6.0 15.0 0.00 0.00 0.00 12 1020.1
20210916191042 82 76 6.0 17.0 0.00 0.00 0.00 14 1020.0
20210916190535 80 0 6.0 17.0 0.00 0.00 0.00 15 1019.9
20210916190030 80 105 7.0 17.0 0.00 0.00 0.00 13 1020.3
20210916185525 78 71 8.0 16.0 0.00 0.00 0.00 16 1020.4
20210916185018 78 32 8.0 13.0 0.00 0.00 0.00 15 1020.4
20210916184512 78 21 9.0 29.0 0.00 0.00 0.00 13 1020.5
20210916184006 79 323 6.0 29.0 0.00 0.00 0.00 14 1020.4
20210916183500 80 11 4.0 12.0 0.00 0.00 0.00 13 1020.5
20210916182954 79 157 8.0 22.0 0.00 0.00 0.00 12 1020.5
20210916182448 78 190 10.0 22.0 0.00 0.00 0.00 14 1020.5
20210916181942 77 330 10.0 18.0 0.00 0.00 0.00 12 1020.5
20210916181436 78 246 11.0 21.0 0.00 0.00 0.00 13 1020.7
20210916180930 78 219 9.0 21.0 0.00 0.00 0.00 15 1020.5
20210916180424 78 119 7.0 16.0 0.00 0.00 0.00 13 1020.5
20210916175918 80 138 7.0 16.0 0.00 0.00 0.00 14 1020.5
20210916175412 78 90 7.0 15.0 0.00 0.00 0.00 17 1020.4
20210916174906 76 263 8.0 15.0 0.00 0.00 0.00 14 1020.7
20210916174359 75 311 7.0 15.0 0.00 0.00 0.00 16 1020.8
20210916173854 75 317 5.0 13.0 0.00 0.00 0.00 19 1020.8
20210916173348 74 321 6.0 14.0 0.00 0.00 0.00 17 1020.9
20210916172842 75 311 6.0 14.0 0.00 0.00 0.00 18 1021.1
20210916172336 74 346 6.0 16.0 0.00 0.00 0.00 18 1021.2
20210916171830 74 327 5.0 16.0 0.00 0.00 0.00 16 1021.2
20210916171325 74 247 4.0 11.0 0.00 0.00 0.00 19 1021.2
20210916170818 74 301 6.0 18.0 0.00 0.00 0.00 19 1021.2
20210916170311 74 232 6.0 17.0 0.00 0.00 0.00 18 1021.2
20210916165807 73 330 7.0 14.0 0.00 0.00 0.00 18 1021.3
20210916165305 74 312 7.0 17.0 0.00 0.00 0.00 19 1021.4
20210916164803 74 254 7.0 17.0 0.00 0.00 0.00 18 1021.6
20210916164302 73 323 9.0 18.0 0.00 0.00 0.00 18 1021.4